Year,Month,Day,Hour,Minute,Value (Times are PST for temperature in C)
2014,08,10,00,00,16.20
2014,08,10,00,01,16.20
2014,08,10,00,02,16.20
2014,08,10,00,03,16.10
2014,08,10,00,04,16.10
2014,08,10,00,05,16.10
2014,08,10,00,06,16.10
2014,08,10,00,07,16.10
2014,08,10,00,08,16.10
2014,08,10,00,09,16.10
2014,08,10,00,10,16.00
2014,08,10,00,11,16.00
2014,08,10,00,12,16.00
2014,08,10,00,13,16.00
2014,08,10,00,14,16.00
2014,08,10,00,15,15.90
2014,08,10,00,16,15.90
2014,08,10,00,17,15.90
2014,08,10,00,18,15.80
2014,08,10,00,19,15.80
2014,08,10,00,20,15.80
2014,08,10,00,21,15.80
2014,08,10,00,22,15.80
2014,08,10,00,23,15.80
2014,08,10,00,24,15.80
2014,08,10,00,25,15.80
2014,08,10,00,26,15.90
2014,08,10,00,27,15.90
2014,08,10,00,28,15.90
2014,08,10,00,29,15.90
2014,08,10,00,30,15.80
2014,08,10,00,31,15.80
2014,08,10,00,32,15.80
2014,08,10,00,33,15.80
2014,08,10,00,34,15.80
2014,08,10,00,35,15.80
2014,08,10,00,36,15.80
2014,08,10,00,37,15.80
2014,08,10,00,38,15.80
2014,08,10,00,39,15.70
2014,08,10,00,40,15.70
2014,08,10,00,41,15.70
2014,08,10,00,42,15.70
2014,08,10,00,43,15.60
2014,08,10,00,44,15.60
2014,08,10,00,45,15.60
2014,08,10,00,46,15.50
2014,08,10,00,47,15.40
2014,08,10,00,48,15.40
2014,08,10,00,49,15.30
2014,08,10,00,50,15.30
2014,08,10,00,51,15.30
2014,08,10,00,52,15.30
2014,08,10,00,53,15.30
2014,08,10,00,54,15.30
2014,08,10,00,55,15.30
2014,08,10,00,56,15.30
2014,08,10,00,57,15.30
2014,08,10,00,58,15.30
2014,08,10,00,59,15.30
2014,08,10,01,00,15.30
2014,08,10,01,01,15.30
2014,08,10,01,02,15.30
2014,08,10,01,03,15.30
2014,08,10,01,04,15.30
2014,08,10,01,05,15.40
2014,08,10,01,06,15.40
2014,08,10,01,07,15.40
2014,08,10,01,08,15.40
2014,08,10,01,09,15.40
2014,08,10,01,10,15.40
2014,08,10,01,11,15.40
2014,08,10,01,12,15.40
2014,08,10,01,13,15.40
2014,08,10,01,14,15.40
2014,08,10,01,15,15.40
2014,08,10,01,16,15.40
2014,08,10,01,17,15.30
2014,08,10,01,18,15.30
2014,08,10,01,19,15.30
2014,08,10,01,20,15.30
2014,08,10,01,21,15.20
2014,08,10,01,22,15.20
2014,08,10,01,23,15.20
2014,08,10,01,24,15.20
2014,08,10,01,25,15.10
2014,08,10,01,26,15.00
2014,08,10,01,27,15.00
2014,08,10,01,28,15.00
2014,08,10,01,29,15.00
2014,08,10,01,30,15.00
2014,08,10,01,31,15.00
2014,08,10,01,32,15.00
2014,08,10,01,33,15.00
2014,08,10,01,34,15.00
2014,08,10,01,35,14.90
2014,08,10,01,36,14.90
2014,08,10,01,37,14.90
2014,08,10,01,38,14.90
2014,08,10,01,39,14.90
2014,08,10,01,40,14.90
2014,08,10,01,41,14.90
2014,08,10,01,42,15.00
2014,08,10,01,43,15.00
2014,08,10,01,44,15.00
2014,08,10,01,45,15.00
2014,08,10,01,46,15.00
2014,08,10,01,47,15.00
2014,08,10,01,48,15.00
2014,08,10,01,49,15.00
2014,08,10,01,50,15.00
2014,08,10,01,51,15.00
2014,08,10,01,52,15.00
2014,08,10,01,53,15.00
2014,08,10,01,54,15.00
2014,08,10,01,55,15.00
2014,08,10,01,56,15.00
2014,08,10,01,57,15.00
2014,08,10,01,58,15.00
2014,08,10,01,59,15.00
2014,08,10,02,00,15.00
2014,08,10,02,01,15.00
2014,08,10,02,02,15.00
2014,08,10,02,03,15.00
2014,08,10,02,04,15.00
2014,08,10,02,05,15.00
2014,08,10,02,06,15.00
2014,08,10,02,07,15.00
2014,08,10,02,08,15.00
2014,08,10,02,09,15.00
2014,08,10,02,10,15.00
2014,08,10,02,11,15.00
2014,08,10,02,12,15.00
2014,08,10,02,13,15.00
2014,08,10,02,14,15.00
2014,08,10,02,15,15.00
2014,08,10,02,16,15.00
2014,08,10,02,17,14.90
2014,08,10,02,18,14.90
2014,08,10,02,19,14.90
2014,08,10,02,20,14.90
2014,08,10,02,21,14.90
2014,08,10,02,22,14.90
2014,08,10,02,23,14.90
2014,08,10,02,24,14.90
2014,08,10,02,25,14.90
2014,08,10,02,26,14.90
2014,08,10,02,27,14.90
2014,08,10,02,28,14.80
2014,08,10,02,29,14.80
2014,08,10,02,30,14.80
2014,08,10,02,31,14.80
2014,08,10,02,32,14.80
2014,08,10,02,33,14.80
2014,08,10,02,34,14.80
2014,08,10,02,35,14.80
2014,08,10,02,36,14.80
2014,08,10,02,37,14.90
2014,08,10,02,38,14.90
2014,08,10,02,39,14.90
2014,08,10,02,40,15.00
2014,08,10,02,41,15.00
2014,08,10,02,42,15.00
2014,08,10,02,43,15.00
2014,08,10,02,44,15.00
2014,08,10,02,45,15.00
2014,08,10,02,46,15.00
2014,08,10,02,47,15.00
2014,08,10,02,48,15.00
2014,08,10,02,49,15.00
2014,08,10,02,50,15.00
2014,08,10,02,51,15.00
2014,08,10,02,52,15.00
2014,08,10,02,53,15.00
2014,08,10,02,54,15.00
2014,08,10,02,55,15.00
2014,08,10,02,56,15.00
2014,08,10,02,57,15.00
2014,08,10,02,58,15.00
2014,08,10,02,59,15.00
2014,08,10,03,00,15.10
2014,08,10,03,01,15.00
2014,08,10,03,02,15.00
2014,08,10,03,03,15.00
2014,08,10,03,04,15.00
2014,08,10,03,05,15.00
2014,08,10,03,06,15.10
2014,08,10,03,07,15.10
2014,08,10,03,08,15.10
2014,08,10,03,09,15.20
2014,08,10,03,10,15.20
2014,08,10,03,11,15.20
2014,08,10,03,12,15.30
2014,08,10,03,13,15.30
2014,08,10,03,14,15.30
2014,08,10,03,15,15.30
2014,08,10,03,16,15.30
2014,08,10,03,17,15.30
2014,08,10,03,18,15.30
2014,08,10,03,19,15.40
2014,08,10,03,20,15.50
2014,08,10,03,21,15.60
2014,08,10,03,22,15.60
2014,08,10,03,23,15.60
2014,08,10,03,24,15.60
2014,08,10,03,25,15.60
2014,08,10,03,26,15.60
2014,08,10,03,27,15.60
2014,08,10,03,28,15.60
2014,08,10,03,29,15.60
2014,08,10,03,30,15.60
2014,08,10,03,31,15.60
2014,08,10,03,32,15.60
2014,08,10,03,33,15.60
2014,08,10,03,34,15.50
2014,08,10,03,35,15.50
2014,08,10,03,36,15.40
2014,08,10,03,37,15.50
2014,08,10,03,38,15.50
2014,08,10,03,39,15.50
2014,08,10,03,40,15.50
2014,08,10,03,41,15.50
2014,08,10,03,42,15.40
2014,08,10,03,43,15.40
2014,08,10,03,44,15.40
2014,08,10,03,45,15.40
2014,08,10,03,46,15.40
2014,08,10,03,47,15.40
2014,08,10,03,48,15.40
2014,08,10,03,49,15.40
2014,08,10,03,50,15.40
2014,08,10,03,51,15.40
2014,08,10,03,52,15.40
2014,08,10,03,53,15.40
2014,08,10,03,54,15.40
2014,08,10,03,55,15.40
2014,08,10,03,56,15.30
2014,08,10,03,57,15.30
2014,08,10,03,58,15.30
2014,08,10,03,59,15.30
2014,08,10,04,00,15.30
2014,08,10,04,01,15.30
2014,08,10,04,02,15.30
2014,08,10,04,03,15.30
2014,08,10,04,04,15.30
2014,08,10,04,05,15.30
2014,08,10,04,06,15.30
2014,08,10,04,07,15.30
2014,08,10,04,08,15.40
2014,08,10,04,09,15.40
2014,08,10,04,10,15.40
2014,08,10,04,11,15.40
2014,08,10,04,12,15.40
2014,08,10,04,13,15.40
2014,08,10,04,14,15.50
2014,08,10,04,15,15.50
2014,08,10,04,16,15.40
2014,08,10,04,17,15.40
2014,08,10,04,18,15.40
2014,08,10,04,19,15.50
2014,08,10,04,20,15.50
2014,08,10,04,21,15.60
2014,08,10,04,22,15.60
2014,08,10,04,23,15.70
2014,08,10,04,24,15.70
2014,08,10,04,25,15.80
2014,08,10,04,26,15.80
2014,08,10,04,27,15.80
2014,08,10,04,28,15.80
2014,08,10,04,29,15.80
2014,08,10,04,30,15.90
2014,08,10,04,31,15.90
2014,08,10,04,32,15.90
2014,08,10,04,33,15.90
2014,08,10,04,34,15.90
2014,08,10,04,35,15.90
2014,08,10,04,36,15.90
2014,08,10,04,37,15.90
2014,08,10,04,38,15.80
2014,08,10,04,39,15.80
2014,08,10,04,40,15.90
2014,08,10,04,41,15.90
2014,08,10,04,42,15.90
2014,08,10,04,43,15.90
2014,08,10,04,44,16.00
2014,08,10,04,45,16.10
2014,08,10,04,46,16.10
2014,08,10,04,47,16.10
2014,08,10,04,48,16.20
2014,08,10,04,49,16.20
2014,08,10,04,50,16.30
2014,08,10,04,51,16.30
2014,08,10,04,52,16.30
2014,08,10,04,53,16.30
2014,08,10,04,54,16.40
2014,08,10,04,55,16.40
2014,08,10,04,56,16.40
2014,08,10,04,57,16.40
2014,08,10,04,58,16.40
2014,08,10,04,59,16.40
2014,08,10,05,00,16.30
2014,08,10,05,01,16.30
2014,08,10,05,02,16.30
2014,08,10,05,03,16.30
2014,08,10,05,04,16.30
2014,08,10,05,05,16.20
2014,08,10,05,06,16.20
2014,08,10,05,07,16.20
2014,08,10,05,08,16.20
2014,08,10,05,09,16.20
2014,08,10,05,10,16.20
2014,08,10,05,11,16.20
2014,08,10,05,12,16.10
2014,08,10,05,13,16.10
2014,08,10,05,14,16.10
2014,08,10,05,15,16.00
2014,08,10,05,16,16.00
2014,08,10,05,17,16.00
2014,08,10,05,18,15.90
2014,08,10,05,19,15.90
2014,08,10,05,20,15.90
2014,08,10,05,21,15.80
2014,08,10,05,22,15.80
2014,08,10,05,23,15.80
2014,08,10,05,24,15.80
2014,08,10,05,25,15.70
2014,08,10,05,26,15.70
2014,08,10,05,27,15.70
2014,08,10,05,28,15.70
2014,08,10,05,29,15.80
2014,08,10,05,30,15.80
2014,08,10,05,31,15.80
2014,08,10,05,32,15.80
2014,08,10,05,33,15.80
2014,08,10,05,34,15.80
2014,08,10,05,35,15.80
2014,08,10,05,36,15.80
2014,08,10,05,37,15.80
2014,08,10,05,38,15.80
2014,08,10,05,39,15.80
2014,08,10,05,40,15.80
2014,08,10,05,41,15.80
2014,08,10,05,42,15.80
2014,08,10,05,43,15.70
2014,08,10,05,44,15.70
2014,08,10,05,45,15.70
2014,08,10,05,46,15.70
2014,08,10,05,47,15.70
2014,08,10,05,48,15.70
2014,08,10,05,49,15.80
2014,08,10,05,50,15.80
2014,08,10,05,51,15.70
2014,08,10,05,52,15.70
2014,08,10,05,53,15.70
2014,08,10,05,54,15.70
2014,08,10,05,55,15.70
2014,08,10,05,56,15.70
2014,08,10,05,57,15.70
2014,08,10,05,58,15.70
2014,08,10,05,59,15.70
2014,08,10,06,00,15.70
2014,08,10,06,01,15.70
2014,08,10,06,02,15.70
2014,08,10,06,03,15.70
2014,08,10,06,04,15.70
2014,08,10,06,05,15.70
2014,08,10,06,06,15.70
2014,08,10,06,07,15.70
2014,08,10,06,08,15.70
2014,08,10,06,09,15.70
2014,08,10,06,10,15.70
2014,08,10,06,11,15.70
2014,08,10,06,12,15.70
2014,08,10,06,13,15.60
2014,08,10,06,14,15.60
2014,08,10,06,15,15.60
2014,08,10,06,16,15.60
2014,08,10,06,17,15.60
2014,08,10,06,18,15.60
2014,08,10,06,19,15.60
2014,08,10,06,20,15.60
2014,08,10,06,21,15.60
2014,08,10,06,22,15.60
2014,08,10,06,23,15.70
2014,08,10,06,24,15.70
2014,08,10,06,25,15.80
2014,08,10,06,26,15.80
2014,08,10,06,27,15.80
2014,08,10,06,28,15.90
2014,08,10,06,29,16.00
2014,08,10,06,30,16.00
2014,08,10,06,31,16.10
2014,08,10,06,32,16.10
2014,08,10,06,33,16.10
2014,08,10,06,34,16.20
2014,08,10,06,35,16.20
2014,08,10,06,36,16.20
2014,08,10,06,37,16.30
2014,08,10,06,38,16.30
2014,08,10,06,39,16.30
2014,08,10,06,40,16.30
2014,08,10,06,41,16.30
2014,08,10,06,42,16.30
2014,08,10,06,43,16.30
2014,08,10,06,44,16.30
2014,08,10,06,45,16.40
2014,08,10,06,46,16.40
2014,08,10,06,47,16.40
2014,08,10,06,48,16.50
2014,08,10,06,49,16.60
2014,08,10,06,50,16.60
2014,08,10,06,51,16.70
2014,08,10,06,52,16.70
2014,08,10,06,53,16.80
2014,08,10,06,54,16.90
2014,08,10,06,55,17.10
2014,08,10,06,56,17.20
2014,08,10,06,57,17.30
2014,08,10,06,58,17.50
2014,08,10,06,59,17.60
2014,08,10,07,00,17.70
2014,08,10,07,01,17.80
2014,08,10,07,02,17.80
2014,08,10,07,03,17.90
2014,08,10,07,04,18.00
2014,08,10,07,05,18.00
2014,08,10,07,06,18.10
2014,08,10,07,07,18.10
2014,08,10,07,08,18.10
2014,08,10,07,09,18.10
2014,08,10,07,10,18.20
2014,08,10,07,11,18.20
2014,08,10,07,12,18.20
2014,08,10,07,13,18.20
2014,08,10,07,14,18.30
2014,08,10,07,15,18.30
2014,08,10,07,16,18.40
2014,08,10,07,17,18.50
2014,08,10,07,18,18.60
2014,08,10,07,19,18.60
2014,08,10,07,20,18.60
2014,08,10,07,21,18.70
2014,08,10,07,22,18.70
2014,08,10,07,23,18.80
2014,08,10,07,24,18.80
2014,08,10,07,25,18.90
2014,08,10,07,26,18.90
2014,08,10,07,27,18.90
2014,08,10,07,28,18.90
2014,08,10,07,29,19.00
2014,08,10,07,30,19.00
2014,08,10,07,31,19.10
2014,08,10,07,32,19.10
2014,08,10,07,33,19.20
2014,08,10,07,34,19.20
2014,08,10,07,35,19.20
2014,08,10,07,36,19.20
2014,08,10,07,37,19.20
2014,08,10,07,38,19.30
2014,08,10,07,39,19.30
2014,08,10,07,40,19.30
2014,08,10,07,41,19.30
2014,08,10,07,42,19.30
2014,08,10,07,43,19.40
2014,08,10,07,44,19.40
2014,08,10,07,45,19.40
2014,08,10,07,46,19.40
2014,08,10,07,47,19.50
2014,08,10,07,48,19.50
2014,08,10,07,49,19.50
2014,08,10,07,50,19.60
2014,08,10,07,51,19.60
2014,08,10,07,52,19.60
2014,08,10,07,53,19.70
2014,08,10,07,54,19.70
2014,08,10,07,55,19.70
2014,08,10,07,56,19.70
2014,08,10,07,57,19.70
2014,08,10,07,58,19.70
2014,08,10,07,59,19.70
2014,08,10,08,00,19.80
2014,08,10,08,01,19.80
2014,08,10,08,02,19.80
2014,08,10,08,03,19.80
2014,08,10,08,04,19.80
2014,08,10,08,05,19.90
2014,08,10,08,06,19.90
2014,08,10,08,07,20.00
2014,08,10,08,08,20.00
2014,08,10,08,09,20.10
2014,08,10,08,10,20.10
2014,08,10,08,11,20.10
2014,08,10,08,12,20.10
2014,08,10,08,13,20.10
2014,08,10,08,14,20.10
2014,08,10,08,15,20.10
2014,08,10,08,16,20.10
2014,08,10,08,17,20.00
2014,08,10,08,18,20.00
2014,08,10,08,19,20.00
2014,08,10,08,20,20.00
2014,08,10,08,21,20.00
2014,08,10,08,22,20.00
2014,08,10,08,23,20.00
2014,08,10,08,24,20.00
2014,08,10,08,25,20.10
2014,08,10,08,26,20.10
2014,08,10,08,27,20.10
2014,08,10,08,28,20.10
2014,08,10,08,29,20.10
2014,08,10,08,30,20.10
2014,08,10,08,31,20.10
2014,08,10,08,32,20.10
2014,08,10,08,33,20.20
2014,08,10,08,34,20.20
2014,08,10,08,35,20.20
2014,08,10,08,36,20.20
2014,08,10,08,37,20.30
2014,08,10,08,38,20.30
2014,08,10,08,39,20.30
2014,08,10,08,40,20.30
2014,08,10,08,41,20.40
2014,08,10,08,42,20.40
2014,08,10,08,43,20.40
2014,08,10,08,44,20.50
2014,08,10,08,45,20.50
2014,08,10,08,46,20.60
2014,08,10,08,47,20.60
2014,08,10,08,48,20.60
2014,08,10,08,49,20.70
2014,08,10,08,50,20.70
2014,08,10,08,51,20.70
2014,08,10,08,52,20.80
2014,08,10,08,53,20.80
2014,08,10,08,54,20.80
2014,08,10,08,55,20.90
2014,08,10,08,56,20.90
2014,08,10,08,57,20.90
2014,08,10,08,58,20.80
2014,08,10,08,59,20.80
2014,08,10,09,00,20.80
2014,08,10,09,01,20.80
2014,08,10,09,02,20.80
2014,08,10,09,03,20.80
2014,08,10,09,04,20.80
2014,08,10,09,05,20.90
2014,08,10,09,06,20.90
2014,08,10,09,07,21.00
2014,08,10,09,08,21.10
2014,08,10,09,09,21.10
2014,08,10,09,10,21.20
2014,08,10,09,11,21.20
2014,08,10,09,12,21.30
2014,08,10,09,13,21.30
2014,08,10,09,14,21.30
2014,08,10,09,15,21.40
2014,08,10,09,16,21.40
2014,08,10,09,17,21.40
2014,08,10,09,18,21.40
2014,08,10,09,19,21.50
2014,08,10,09,20,21.50
2014,08,10,09,21,21.60
2014,08,10,09,22,21.70
2014,08,10,09,23,21.70
2014,08,10,09,24,21.70
2014,08,10,09,25,21.70
2014,08,10,09,26,21.70
2014,08,10,09,27,21.70
2014,08,10,09,28,21.70
2014,08,10,09,29,21.70
2014,08,10,09,30,21.70
2014,08,10,09,31,21.70
2014,08,10,09,32,21.80
2014,08,10,09,33,21.80
2014,08,10,09,34,21.90
2014,08,10,09,35,21.90
2014,08,10,09,36,21.90
2014,08,10,09,37,21.80
2014,08,10,09,38,21.80
2014,08,10,09,39,21.80
2014,08,10,09,40,21.80
2014,08,10,09,41,21.80
2014,08,10,09,42,21.80
2014,08,10,09,43,21.90
2014,08,10,09,44,21.80
2014,08,10,09,45,21.90
2014,08,10,09,46,22.00
2014,08,10,09,47,22.00
2014,08,10,09,48,22.10
2014,08,10,09,49,22.20
2014,08,10,09,50,22.20
2014,08,10,09,51,22.30
2014,08,10,09,52,22.40
2014,08,10,09,53,22.40
2014,08,10,09,54,22.50
2014,08,10,09,55,22.50
2014,08,10,09,56,22.50
2014,08,10,09,57,22.50
2014,08,10,09,58,22.40
2014,08,10,09,59,22.30
2014,08,10,10,00,22.30
2014,08,10,10,01,22.30
2014,08,10,10,02,22.30
2014,08,10,10,03,22.30
2014,08,10,10,04,22.20
2014,08,10,10,05,22.20
2014,08,10,10,06,22.20
2014,08,10,10,07,22.20
2014,08,10,10,08,22.20
2014,08,10,10,09,22.20
2014,08,10,10,10,22.20
2014,08,10,10,11,22.30
2014,08,10,10,12,22.30
2014,08,10,10,13,22.30
2014,08,10,10,14,22.30
2014,08,10,10,15,22.20
2014,08,10,10,16,22.20
2014,08,10,10,17,22.20
2014,08,10,10,18,22.20
2014,08,10,10,19,22.30
2014,08,10,10,20,22.30
2014,08,10,10,21,22.40
2014,08,10,10,22,22.50
2014,08,10,10,23,22.60
2014,08,10,10,24,22.60
2014,08,10,10,25,22.60
2014,08,10,10,26,22.50
2014,08,10,10,27,22.50
2014,08,10,10,28,22.50
2014,08,10,10,29,22.60
2014,08,10,10,30,22.60
2014,08,10,10,31,22.50
2014,08,10,10,32,22.50
2014,08,10,10,33,22.50
2014,08,10,10,34,22.60
2014,08,10,10,35,22.60
2014,08,10,10,36,22.70
2014,08,10,10,37,22.70
2014,08,10,10,38,22.80
2014,08,10,10,39,22.90
2014,08,10,10,40,23.00
2014,08,10,10,41,23.10
2014,08,10,10,42,23.10
2014,08,10,10,43,23.20
2014,08,10,10,44,23.10
2014,08,10,10,45,23.10
2014,08,10,10,46,23.20
2014,08,10,10,47,23.20
2014,08,10,10,48,23.20
2014,08,10,10,49,23.20
2014,08,10,10,50,23.10
2014,08,10,10,51,23.10
2014,08,10,10,52,23.10
2014,08,10,10,53,23.10
2014,08,10,10,54,23.10
2014,08,10,10,55,23.10
2014,08,10,10,56,23.00
2014,08,10,10,57,22.90
2014,08,10,10,58,22.70
2014,08,10,10,59,22.70
2014,08,10,11,00,22.70
2014,08,10,11,01,22.80
2014,08,10,11,02,22.80
2014,08,10,11,03,22.90
2014,08,10,11,04,22.90
2014,08,10,11,05,22.90
2014,08,10,11,06,23.00
2014,08,10,11,07,23.00
2014,08,10,11,08,23.10
2014,08,10,11,09,23.20
2014,08,10,11,10,23.20
2014,08,10,11,11,23.30
2014,08,10,11,12,23.30
2014,08,10,11,13,23.40
2014,08,10,11,14,23.40
2014,08,10,11,15,23.40
2014,08,10,11,16,23.50
2014,08,10,11,17,23.60
2014,08,10,11,18,23.70
2014,08,10,11,19,23.70
2014,08,10,11,20,23.70
2014,08,10,11,21,23.70
2014,08,10,11,22,23.70
2014,08,10,11,23,23.80
2014,08,10,11,24,23.80
2014,08,10,11,25,23.80
2014,08,10,11,26,23.80
2014,08,10,11,27,23.80
2014,08,10,11,28,23.80
2014,08,10,11,29,23.80
2014,08,10,11,30,23.80
2014,08,10,11,31,23.80
2014,08,10,11,32,23.70
2014,08,10,11,33,23.50
2014,08,10,11,34,23.40
2014,08,10,11,35,23.50
2014,08,10,11,36,23.50
2014,08,10,11,37,23.60
2014,08,10,11,38,23.70
2014,08,10,11,39,23.70
2014,08,10,11,40,23.70
2014,08,10,11,41,23.70
2014,08,10,11,42,23.80
2014,08,10,11,43,23.80
2014,08,10,11,44,23.90
2014,08,10,11,45,23.90
2014,08,10,11,46,23.90
2014,08,10,11,47,23.80
2014,08,10,11,48,23.80
2014,08,10,11,49,23.80
2014,08,10,11,50,23.80
2014,08,10,11,51,23.80
2014,08,10,11,52,23.90
2014,08,10,11,53,23.90
2014,08,10,11,54,23.90
2014,08,10,11,55,24.00
2014,08,10,11,56,24.00
2014,08,10,11,57,24.00
2014,08,10,11,58,24.10
2014,08,10,11,59,24.10
2014,08,10,12,00,24.20
2014,08,10,12,01,24.20
2014,08,10,12,02,24.30
2014,08,10,12,03,24.30
2014,08,10,12,04,24.30
2014,08,10,12,05,24.20
2014,08,10,12,06,24.10
2014,08,10,12,07,24.10
2014,08,10,12,08,24.10
2014,08,10,12,09,24.20
2014,08,10,12,10,24.20
2014,08,10,12,11,24.30
2014,08,10,12,12,24.40
2014,08,10,12,13,24.40
2014,08,10,12,14,24.60
2014,08,10,12,15,24.60
2014,08,10,12,16,24.60
2014,08,10,12,17,24.60
2014,08,10,12,18,24.50
2014,08,10,12,19,24.50
2014,08,10,12,20,24.40
2014,08,10,12,21,24.30
2014,08,10,12,22,24.20
2014,08,10,12,23,24.20
2014,08,10,12,24,24.20
2014,08,10,12,25,24.20
2014,08,10,12,26,24.20
2014,08,10,12,27,24.30
2014,08,10,12,28,24.40
2014,08,10,12,29,24.40
2014,08,10,12,30,24.40
2014,08,10,12,31,24.50
2014,08,10,12,32,24.50
2014,08,10,12,33,24.60
2014,08,10,12,34,24.60
2014,08,10,12,35,24.60
2014,08,10,12,36,24.60
2014,08,10,12,37,24.60
2014,08,10,12,38,24.60
2014,08,10,12,39,24.60
2014,08,10,12,40,24.60
2014,08,10,12,41,24.60
2014,08,10,12,42,24.60
2014,08,10,12,43,24.60
2014,08,10,12,44,24.60
2014,08,10,12,45,24.70
2014,08,10,12,46,24.70
2014,08,10,12,47,24.70
2014,08,10,12,48,24.70
2014,08,10,12,49,24.60
2014,08,10,12,50,24.60
2014,08,10,12,51,24.50
2014,08,10,12,52,24.50
2014,08,10,12,53,24.60
2014,08,10,12,54,24.60
2014,08,10,12,55,24.60
2014,08,10,12,56,24.70
2014,08,10,12,57,24.70
2014,08,10,12,58,24.80
2014,08,10,12,59,24.80
2014,08,10,13,00,24.90
2014,08,10,13,01,25.10
2014,08,10,13,02,25.10
2014,08,10,13,03,25.20
2014,08,10,13,04,25.30
2014,08,10,13,05,25.30
2014,08,10,13,06,25.30
2014,08,10,13,07,25.30
2014,08,10,13,08,25.30
2014,08,10,13,09,25.40
2014,08,10,13,10,25.50
2014,08,10,13,11,25.60
2014,08,10,13,12,25.60
2014,08,10,13,13,25.60
2014,08,10,13,14,25.60
2014,08,10,13,15,25.60
2014,08,10,13,16,25.60
2014,08,10,13,17,25.70
2014,08,10,13,18,25.70
2014,08,10,13,19,25.70
2014,08,10,13,20,25.80
2014,08,10,13,21,25.90
2014,08,10,13,22,25.90
2014,08,10,13,23,25.90
2014,08,10,13,24,25.80
2014,08,10,13,25,25.80
2014,08,10,13,26,25.80
2014,08,10,13,27,25.80
2014,08,10,13,28,25.80
2014,08,10,13,29,25.90
2014,08,10,13,30,25.90
2014,08,10,13,31,26.00
2014,08,10,13,32,26.00
2014,08,10,13,33,26.00
2014,08,10,13,34,26.10
2014,08,10,13,35,26.20
2014,08,10,13,36,26.30
2014,08,10,13,37,26.40
2014,08,10,13,38,26.60
2014,08,10,13,39,26.70
2014,08,10,13,40,26.70
2014,08,10,13,41,26.70
2014,08,10,13,42,26.70
2014,08,10,13,43,26.70
2014,08,10,13,44,26.60
2014,08,10,13,45,26.60
2014,08,10,13,46,26.50
2014,08,10,13,47,26.50
2014,08,10,13,48,26.40
2014,08,10,13,49,26.30
2014,08,10,13,50,26.10
2014,08,10,13,51,26.00
2014,08,10,13,52,25.90
2014,08,10,13,53,25.90
2014,08,10,13,54,25.90
2014,08,10,13,55,25.90
2014,08,10,13,56,25.90
2014,08,10,13,57,25.90
2014,08,10,13,58,25.90
2014,08,10,13,59,25.90
2014,08,10,14,00,25.90
2014,08,10,14,01,25.90
2014,08,10,14,02,25.90
2014,08,10,14,03,25.90
2014,08,10,14,04,25.80
2014,08,10,14,05,25.80
2014,08,10,14,06,25.90
2014,08,10,14,07,25.90
2014,08,10,14,08,26.00
2014,08,10,14,09,26.10
2014,08,10,14,10,26.30
2014,08,10,14,11,26.40
2014,08,10,14,12,26.50
2014,08,10,14,13,26.50
2014,08,10,14,14,26.70
2014,08,10,14,15,26.80
2014,08,10,14,16,26.90
2014,08,10,14,17,27.00
2014,08,10,14,18,27.00
2014,08,10,14,19,27.00
2014,08,10,14,20,27.00
2014,08,10,14,21,27.00
2014,08,10,14,22,27.20
2014,08,10,14,23,27.20
2014,08,10,14,24,27.30
2014,08,10,14,25,27.40
2014,08,10,14,26,27.40
2014,08,10,14,27,27.40
2014,08,10,14,28,27.40
2014,08,10,14,29,27.40
2014,08,10,14,30,27.40
2014,08,10,14,31,27.30
2014,08,10,14,32,27.40
2014,08,10,14,33,27.40
2014,08,10,14,34,27.40
2014,08,10,14,35,27.40
2014,08,10,14,36,27.40
2014,08,10,14,37,27.40
2014,08,10,14,38,27.50
2014,08,10,14,39,27.50
2014,08,10,14,40,27.60
2014,08,10,14,41,27.70
2014,08,10,14,42,27.80
2014,08,10,14,43,28.00
2014,08,10,14,44,28.00
2014,08,10,14,45,27.90
2014,08,10,14,46,27.90
2014,08,10,14,47,27.90
2014,08,10,14,48,27.90
2014,08,10,14,49,27.90
2014,08,10,14,50,27.90
2014,08,10,14,51,27.80
2014,08,10,14,52,27.80
2014,08,10,14,53,27.80
2014,08,10,14,54,27.70
2014,08,10,14,55,27.60
2014,08,10,14,56,27.60
2014,08,10,14,57,27.40
2014,08,10,14,58,27.40
2014,08,10,14,59,27.30
2014,08,10,15,00,27.30
2014,08,10,15,01,27.30
2014,08,10,15,02,27.30
2014,08,10,15,03,27.30
2014,08,10,15,04,27.30
2014,08,10,15,05,27.20
2014,08,10,15,06,27.20
2014,08,10,15,07,27.20
2014,08,10,15,08,27.20
2014,08,10,15,09,27.20
2014,08,10,15,10,27.20
2014,08,10,15,11,27.20
2014,08,10,15,12,27.20
2014,08,10,15,13,27.30
2014,08,10,15,14,27.30
2014,08,10,15,15,27.30
2014,08,10,15,16,27.30
2014,08,10,15,17,27.40
2014,08,10,15,18,27.40
2014,08,10,15,19,27.40
2014,08,10,15,20,27.40
2014,08,10,15,21,27.40
2014,08,10,15,22,27.40
2014,08,10,15,23,27.40
2014,08,10,15,24,27.30
2014,08,10,15,25,27.30
2014,08,10,15,26,27.30
2014,08,10,15,27,27.30
2014,08,10,15,28,27.40
2014,08,10,15,29,27.40
2014,08,10,15,30,27.40
2014,08,10,15,31,27.50
2014,08,10,15,32,27.50
2014,08,10,15,33,27.60
2014,08,10,15,34,27.60
2014,08,10,15,35,27.60
2014,08,10,15,36,27.70
2014,08,10,15,37,27.70
2014,08,10,15,38,27.80
2014,08,10,15,39,27.80
2014,08,10,15,40,27.80
2014,08,10,15,41,27.90
2014,08,10,15,42,27.90
2014,08,10,15,43,27.80
2014,08,10,15,44,27.80
2014,08,10,15,45,27.80
2014,08,10,15,46,27.80
2014,08,10,15,47,27.80
2014,08,10,15,48,27.90
2014,08,10,15,49,27.90
2014,08,10,15,50,28.00
2014,08,10,15,51,28.20
2014,08,10,15,52,28.30
2014,08,10,15,53,28.30
2014,08,10,15,54,28.30
2014,08,10,15,55,28.30
2014,08,10,15,56,28.30
2014,08,10,15,57,28.30
2014,08,10,15,58,28.30
2014,08,10,15,59,28.40
2014,08,10,16,00,28.40
2014,08,10,16,01,28.40
2014,08,10,16,02,28.40
2014,08,10,16,03,28.40
2014,08,10,16,04,28.40
2014,08,10,16,05,28.40
2014,08,10,16,06,28.40
2014,08,10,16,07,28.40
2014,08,10,16,08,28.40
2014,08,10,16,09,28.40
2014,08,10,16,10,28.40
2014,08,10,16,11,28.50
2014,08,10,16,12,28.50
2014,08,10,16,13,28.50
2014,08,10,16,14,28.50
2014,08,10,16,15,28.40
2014,08,10,16,16,28.50
2014,08,10,16,17,28.50
2014,08,10,16,18,28.50
2014,08,10,16,19,28.60
2014,08,10,16,20,28.50
2014,08,10,16,21,28.40
2014,08,10,16,22,28.30
2014,08,10,16,23,28.20
2014,08,10,16,24,28.20
2014,08,10,16,25,28.10
2014,08,10,16,26,28.10
2014,08,10,16,27,28.00
2014,08,10,16,28,27.90
2014,08,10,16,29,27.90
2014,08,10,16,30,27.90
2014,08,10,16,31,27.90
2014,08,10,16,32,27.90
2014,08,10,16,33,27.90
2014,08,10,16,34,27.90
2014,08,10,16,35,27.90
2014,08,10,16,36,27.90
2014,08,10,16,37,28.00
2014,08,10,16,38,28.00
2014,08,10,16,39,28.10
2014,08,10,16,40,28.20
2014,08,10,16,41,28.30
2014,08,10,16,42,28.40
2014,08,10,16,43,28.50
2014,08,10,16,44,28.50
2014,08,10,16,45,28.50
2014,08,10,16,46,28.50
2014,08,10,16,47,28.50
2014,08,10,16,48,28.60
2014,08,10,16,49,28.60
2014,08,10,16,50,28.70
2014,08,10,16,51,28.80
2014,08,10,16,52,28.90
2014,08,10,16,53,28.90
2014,08,10,16,54,28.90
2014,08,10,16,55,28.90
2014,08,10,16,56,29.00
2014,08,10,16,57,29.00
2014,08,10,16,58,29.00
2014,08,10,16,59,28.90
2014,08,10,17,00,28.90
2014,08,10,17,01,28.90
2014,08,10,17,02,28.80
2014,08,10,17,03,28.80
2014,08,10,17,04,28.80
2014,08,10,17,05,28.90
2014,08,10,17,06,28.90
2014,08,10,17,07,29.00
2014,08,10,17,08,29.10
2014,08,10,17,09,29.10
2014,08,10,17,10,29.20
2014,08,10,17,11,29.20
2014,08,10,17,12,29.20
2014,08,10,17,13,29.10
2014,08,10,17,14,28.90
2014,08,10,17,15,28.80
2014,08,10,17,16,28.70
2014,08,10,17,17,28.70
2014,08,10,17,18,28.60
2014,08,10,17,19,28.60